Home   Weather   Township of Fairfield   Past weeks
Flag for USA

Past Weather in Township of Fairfield, Iowa, USA — Yesterday and Last 2 Weeks

Now
13 °F

Overcast.


Feels Like: -4 °F
Forecast: 16 / 7 °F
Wind: 18 mph from Northwest

Location: Waterloo Municipal Airport

Current Time: Dec 9, 2019 at 6:42:24 pm

Latest Report: Dec 9, 2019 at 5:54 pm


Visibility: 10 mi

Pressure: 29.88 "Hg

Humidity: 70%

Dew Point: 5 °F

Location of Township of FairfieldLocation

Past Weather in Township of Fairfield — Graph

°F

Township of Fairfield Temperature Yesterday

Maximum temperature yesterday: 46 °F (at 12:54 pm)
Minimum temperature yesterday: 31 °F (at 6:54 pm)
Average temperature yesterday: 38 °F

High & Low Weather Summary for the Past Weeks

 TemperatureHumidityPressure
High53 °F (Dec 5, 1:54 pm)93% (Nov 26, 8:23 pm)30.56 "Hg (Nov 26, 8:23 pm)
Low13 °F (Dec 9, 4:54 pm)42% (Nov 25, 2:54 pm)29.24 "Hg (Nov 27, 12:54 am)
Average34 °F79%29.88 "Hg
* Reported Nov 24 4:54 pm — Dec 9 4:54 pm, Township of Fairfield. Weather by CustomWeather, © 2019

Note: Actual official high and low records may vary slightly from our data, if they occured in-between our weather recording intervals... More about our weather records

Township of Fairfield Weather History for the Previous 24 Hours

Scroll right to see more
 ConditionsComfort  
Time TempWeatherWind HumidityBarometerVisibility
4:54 pm
Mon, Dec 9
13 °FOvercast.17 mph74%29.84 "Hg9 mi
3:54 pm15 °FLight snow. Overcast.23 mph70%29.80 "Hg5 mi
3:26 pm16 °FLight snow. Overcast.21 mph71%29.75 "Hg4 mi
3:02 pm17 °FLight snow. Overcast.22 mph70%29.73 "Hg2 mi
2:20 pm19 °FLight snow. Overcast.21 mph71%29.70 "Hg5 mi
1:54 pm20 °FOvercast.24 mph71%29.71 "Hg6 mi
1:08 pm21 °FMostly cloudy.16 mph74%29.66 "Hg7 mi
12:42 pm22 °FMostly cloudy.21 mph72%29.64 "Hg9 mi
12:20 pm21 °FLight snow. Mostly cloudy.24 mph78%29.63 "Hg3 mi
11:36 am23 °FSnow. Ice fog.16 mph85%29.63 "Hg0 mi
11:18 am25 °FLight snow. Mostly cloudy.21 mph81%29.62 "Hg1 mi
10:54 am28 °FOvercast.16 mph78%29.64 "Hg10 mi
10:05 am31 °FIce fog.17 mph89%29.60 "Hg3 mi
8:54 am35 °FFog.17 mph85%29.57 "Hg3 mi
8:31 am37 °FFog.8 mph89%29.54 "Hg1 mi
7:54 am37 °FFog.5 mph89%29.56 "Hg5 mi
6:54 am38 °FFog.5 mph86%29.55 "Hg5 mi
5:54 am38 °FFog.No wind90%29.55 "Hg4 mi
5:03 am38 °FFog.5 mph86%29.55 "Hg5 mi
4:54 am38 °FFog.3 mph86%29.57 "Hg5 mi
3:54 am38 °FFog.3 mph90%29.58 "Hg5 mi
3:01 am38 °FFog.No wind90%29.57 "Hg5 mi
2:18 am38 °FFog.3 mph90%29.58 "Hg5 mi
2:07 am38 °FFog.3 mph90%29.59 "Hg5 mi
1:54 am38 °FFog.No wind86%29.61 "Hg5 mi
12:54 am37 °FFog.5 mph89%29.64 "Hg5 mi
11:54 pm
Sun, Dec 8
36 °FFog.No wind89%29.66 "Hg6 mi
10:54 pm34 °FOvercast.No wind88%29.68 "Hg7 mi
9:54 pm33 °FOvercast.No wind85%29.71 "Hg7 mi
9:03 pm31 °FPassing clouds.5 mph89%29.70 "Hg7 mi
7:54 pm31 °FClear.3 mph85%29.75 "Hg7 mi
6:54 pm31 °FClear.6 mph85%29.77 "Hg9 mi
Weather by CustomWeather, © 2019

See weather overview

Advertising